Flag for USA

Past Weather in Woodbridge Street Historic District, Massachusetts, USA — Yesterday and Last 2 Weeks

Now
54 °F

Partly sunny.


Feels Like: 49 °F
Forecast: 53 / 41 °F
Wind: 17 mph from Northwest

Location: Chicopee Falls / Westover Air Force Base

Current Time: Oct 18, 2019 at 5:38:05 pm

Latest Report: Oct 18, 2019 at 3:56 pm


Visibility: 10 mi

Pressure: 29.83 "Hg

Humidity: 53%

Dew Point: 37 °F

Location of Woodbridge Street Historic DistrictLocation

Past Weather in Woodbridge Street Historic District — Graph

°F

Woodbridge Street Historic District Temperature Yesterday

Maximum temperature yesterday: 57 °F (at 2:14 am)
Minimum temperature yesterday: 46 °F (at 6:11 am)
Average temperature yesterday: 51 °F

High & Low Weather Summary for the Past Weeks

 TemperatureHumidityPressure
High73 °F (Oct 7, 12:56 pm)100% (Oct 4, 1:24 am)30.49 "Hg (Oct 4, 1:24 am)
Low30 °F (Oct 5, 6:56 am)25% (Oct 5, 4:56 pm)28.92 "Hg (Oct 17, 2:57 am)
Average53 °F75%30.01 "Hg
* Reported Oct 3 3:56 pm — Oct 18 3:56 pm, Woodbridge Street Historic District. Weather by CustomWeather, © 2019

Note: Actual official high and low records may vary slightly from our data, if they occured in-between our weather recording intervals... More about our weather records

Advertising

Woodbridge Street Historic District Weather History for the Previous 24 Hours

Scroll right to see more
 ConditionsComfort  
Time TempWeatherWind HumidityBarometerVisibility
3:56 pm
Fri, Oct 18
54 °FPartly sunny.17 mph53%29.83 "Hg10 mi
2:56 pm56 °FPartly sunny.17 mph51%29.80 "Hg10 mi
1:56 pm57 °FPartly sunny.14 mph48%29.78 "Hg10 mi
12:56 pm59 °FPartly sunny.17 mph46%29.77 "Hg10 mi
11:56 am56 °FPartly sunny.15 mph48%29.77 "Hg10 mi
10:56 am54 °FPartly sunny.17 mph53%29.77 "Hg10 mi
9:56 am51 °FPartly sunny.15 mph59%29.76 "Hg10 mi
8:56 am50 °FPartly sunny.15 mph64%29.73 "Hg10 mi
7:57 am49 °FPartly sunny.16 mph66%29.69 "Hg10 mi
6:56 am49 °FPassing clouds.13 mph67%29.66 "Hg10 mi
5:56 am49 °FOvercast.7 mph67%29.63 "Hg10 mi
4:56 am49 °FOvercast.12 mph69%29.60 "Hg10 mi
4:26 am48 °FPassing clouds.12 mph71%29.59 "Hg10 mi
3:56 am49 °FPassing clouds.15 mph69%29.56 "Hg10 mi
3:11 am50 °FPassing clouds.14 mph67%29.56 "Hg10 mi
2:56 am50 °FPartly cloudy.15 mph68%29.55 "Hg10 mi
2:26 am50 °FPassing clouds.13 mph67%29.54 "Hg10 mi
1:56 am50 °FMostly cloudy.10 mph67%29.54 "Hg10 mi
12:56 am51 °FOvercast.20 mph68%29.50 "Hg10 mi
12:26 am52 °FMostly cloudy.8 mph67%29.49 "Hg10 mi
11:56 pm
Thu, Oct 17
52 °FOvercast.9 mph64%29.48 "Hg10 mi
10:56 pm51 °FOvercast.8 mph64%29.44 "Hg10 mi
9:56 pm51 °FOvercast.15 mph64%29.40 "Hg10 mi
8:56 pm51 °FMostly cloudy.12 mph64%29.37 "Hg10 mi
7:56 pm51 °FPartly cloudy.20 mph65%29.33 "Hg10 mi
6:56 pm51 °FOvercast.17 mph64%29.30 "Hg10 mi
5:56 pm52 °FMostly cloudy.21 mph63%29.26 "Hg10 mi
Weather by CustomWeather, © 2019

See weather overview